Weather reports worldwide

Advertisment
Charlwood, United Kingdom (3769): temperature & dewpoint: 17.07.2019 21:00:00 - 23.07.2019 21:00:00 (BST)Charlwood, United Kingdom (3769): temperature -20cm & temperature -100cm: 17.07.2019 21:00:00 - 23.07.2019 21:00:00 (BST)Charlwood, United Kingdom (3769): wind speed: 17.07.2019 21:00:00 - 23.07.2019 21:00:00 (BST)Charlwood, United Kingdom (3769): wind direction: 17.07.2019 21:00:00 - 23.07.2019 21:00:00 (BST)Charlwood, United Kingdom (3769): reduced air pressure: 17.07.2019 21:00:00 - 23.07.2019 21:00:00 (BST)Charlwood, United Kingdom (3769): visibility: 17.07.2019 21:00:00 - 23.07.2019 21:00:00 (BST)Charlwood, United Kingdom (3769): sunshine duration: 17.07.2019 21:00:00 - 23.07.2019 21:00:00 (BST)Charlwood, United Kingdom (3769): precipitation: 17.07.2019 21:00:00 - 23.07.2019 21:00:00 (BST)
Date & Time tt [°C] td [°C] tt -20cm [°C] tt -100cm [°C] ff [km/h] ff [kn] dd ppp [hPa] vv [km] sd [min] rr [mm]
23.07.2019 21:00:00 26,7 15,6 - - 11 6 E 1013,0 45 0 0,0
23.07.2019 20:00:00 28,6 14,9 - - 9 5 E 1013,3 50 54 0,0
23.07.2019 19:00:00 29,9 14,7 - - 16 9 E 1013,7 40 60 0,0
23.07.2019 18:00:00 31,2 13,0 - - 9 5 SE 1014,6 45 60 0,0
23.07.2019 17:00:00 31,3 13,4 - - 13 7 ESE 1015,0 40 60 0,0
23.07.2019 16:00:00 32,0 15,2 - - 11 6 ESE 1015,5 28 60 0,0
23.07.2019 15:00:00 31,6 14,7 - - 18 10 SE 1016,3 30 60 0,0
23.07.2019 14:00:00 31,6 17,0 - - 15 8 SE 1016,7 30 60 0,0
23.07.2019 13:00:00 30,4 16,1 - - 13 7 SE 1017,3 29 60 0,0
23.07.2019 12:00:00 29,2 17,8 - - 9 5 ESE 1017,9 29 60 0,0
23.07.2019 11:00:00 26,8 18,9 - - 9 5 ESE 1018,4 22 60 0,0
23.07.2019 10:00:00 22,8 18,5 19,0 16,2 5 3 ENE 1018,9 14 60 0,0
23.07.2019 09:00:00 19,6 19,2 - - 8 4 NE 1019,4 14 54 0,0
23.07.2019 08:00:00 16,5 16,1 - - 4 2 NNE 1020,2 0,5 0 0,0
23.07.2019 07:00:00 15,2 14,7 - - 4 2 NNE 1020,3 0,1 0 0,0
23.07.2019 06:00:00 14,6 14,2 - - 2 1 NE 1020,6 0,3 0 0,0
23.07.2019 05:00:00 14,1 13,7 - - 4 2 N 1020,8 0,2 0 0,0
23.07.2019 04:00:00 13,4 12,9 - - 2 1 S 1021,2 - 0 0,0
23.07.2019 03:00:00 13,0 12,3 - - 0 0 N 1021,3 0,4 0 0,0
23.07.2019 02:00:00 13,8 13,1 - - 0 0 N 1021,5 0,1 0 0,0
23.07.2019 01:00:00 14,3 13,4 - - 2 1 SSW 1021,7 0,6 - 0,0
23.07.2019 00:00:00 15,4 14,3 - - 0 0 N 1021,7 3,1 0 0,0
22.07.2019 23:00:00 17,0 15,9 - - 5 3 SW 1021,6 9 0 0,0
22.07.2019 22:00:00 18,1 16,5 - - 5 3 SW 1021,7 13 0 0,0
22.07.2019 21:00:00 20,1 16,9 - - 5 3 SW 1021,6 30 0 0,0
22.07.2019 20:00:00 23,4 17,8 - - 8 4 SSW 1021,4 45 48 0,0
22.07.2019 19:00:00 23,1 17,4 - - 11 6 SW 1021,5 40 24 0,0
22.07.2019 18:00:00 23,7 17,8 - - 11 6 SW 1021,5 45 18 0,0
22.07.2019 17:00:00 23,9 17,7 - - 11 6 SW 1021,7 50 6 0,0
22.07.2019 16:00:00 23,0 16,6 - - 11 6 WSW 1022,3 35 0 0,0
22.07.2019 15:00:00 22,8 17,6 - - 13 7 SW 1022,6 30 0 0,0
22.07.2019 14:00:00 21,6 17,1 - - 13 7 SW 1022,9 30 0 0,0
22.07.2019 13:00:00 21,3 17,5 - - 9 5 SW 1023,1 30 0 0,0
22.07.2019 12:00:00 21,0 16,8 - - 11 6 SW 1023,2 30 0 0,0
22.07.2019 11:00:00 20,6 16,8 - - 13 7 WSW 1023,1 40 0 0,0
22.07.2019 10:00:00 19,8 16,0 19,0 16,2 13 7 WSW 1023,1 40 6 0,0
22.07.2019 09:00:00 20,0 16,0 - - 13 7 SSW 1022,8 35 42 0,0
22.07.2019 08:00:00 18,2 15,4 - - 11 6 SW 1022,7 19 48 0,0
22.07.2019 07:00:00 16,4 15,3 - - 8 4 SW 1022,4 15 0 0,0
22.07.2019 06:00:00 15,6 14,6 - - 9 5 SSW 1022,0 13 0 0,0
22.07.2019 05:00:00 15,4 14,0 - - 9 5 SW 1022,0 16 0 0,0
22.07.2019 04:00:00 15,9 14,2 - - 11 6 SW 1022,0 18 0 0,0
22.07.2019 03:00:00 15,9 14,4 - - 13 7 SW 1022,1 19 0 0,0
22.07.2019 02:00:00 15,5 14,6 - - 11 6 SW 1022,1 14 0 0,0
22.07.2019 01:00:00 14,6 13,7 - - 8 4 SSW 1022,5 11 - 0,0
22.07.2019 00:00:00 14,7 13,4 - - 8 4 SW 1022,7 12 0 0,0
21.07.2019 23:00:00 15,3 13,7 - - 11 6 SSW 1022,4 21 0 0,0
21.07.2019 22:00:00 15,9 13,0 - - 9 5 SSW 1022,5 35 0 0,0
21.07.2019 21:00:00 17,1 12,2 - - 8 4 SSW 1022,3 50 0 0,0
21.07.2019 20:00:00 18,9 11,7 - - 9 5 SSW 1021,9 50 30 0,0
21.07.2019 19:00:00 20,8 12,0 - - 15 8 SW 1021,7 40 60 0,0
21.07.2019 18:00:00 21,1 13,1 - - 15 8 SW 1021,4 50 18 0,0
21.07.2019 17:00:00 20,8 13,5 - - 13 7 SW 1021,7 45 6 0,0
21.07.2019 16:00:00 20,2 13,5 - - 13 7 SW 1022,1 50 6 0,0
21.07.2019 15:00:00 21,2 14,6 - - 13 7 WSW 1021,8 50 18 0,0
21.07.2019 14:00:00 20,3 15,0 - - 13 7 SSW 1021,9 35 6 0,0
21.07.2019 13:00:00 20,6 14,5 - - 11 6 SW 1022,1 45 6 0,0
21.07.2019 12:00:00 19,4 13,2 - - 11 6 SW 1021,6 45 6 0,0
21.07.2019 11:00:00 19,3 12,6 - - 9 5 WSW 1021,3 50 36 0,0
21.07.2019 10:00:00 20,4 14,7 19,0 16,2 11 6 SSW 1021,0 35 60 0,0
21.07.2019 09:00:00 17,3 12,7 - - 9 5 W 1020,8 35 60 0,0
21.07.2019 08:00:00 15,0 14,1 - - 5 3 WSW 1020,5 35 60 0,0
21.07.2019 07:00:00 12,3 11,8 - - 2 1 SSW 1020,1 19 0 0,0
21.07.2019 06:00:00 10,9 10,2 - - 2 1 SSW 1019,3 13 0 0,0
21.07.2019 05:00:00 11,0 10,3 - - 5 3 SW 1018,7 17 0 0,0
21.07.2019 04:00:00 10,5 9,3 - - 5 3 SW 1018,1 18 0 0,0
21.07.2019 03:00:00 11,7 9,6 - - 4 2 WSW 1017,7 30 0 0,0
21.07.2019 02:00:00 13,2 10,2 - - 5 3 W 1017,0 40 0 0,0
21.07.2019 01:00:00 14,0 10,2 - - 9 5 W 1016,6 45 - 0,0
21.07.2019 00:00:00 14,2 10,1 - - 4 2 W 1016,2 50 0 0,0
20.07.2019 23:00:00 15,7 10,4 - - 9 5 WSW 1015,5 50 0 0,0
20.07.2019 22:00:00 16,7 12,3 - - 8 4 W 1014,7 40 0 0,0
20.07.2019 21:00:00 17,5 13,7 - - 8 4 WSW 1013,6 23 0 0,0
20.07.2019 20:00:00 19,2 13,8 - - 11 6 WSW 1012,3 30 30 0,0
20.07.2019 19:00:00 20,5 13,4 - - 16 9 SW 1011,5 40 48 0,0
20.07.2019 18:00:00 20,9 14,3 - - 16 9 SW 1010,7 30 36 0,0
20.07.2019 17:00:00 22,3 15,0 - - 16 9 SW 1010,0 35 36 0,0
20.07.2019 16:00:00 22,7 14,4 - - 21 11 SW 1009,5 40 48 0,0
20.07.2019 15:00:00 21,7 15,8 - - 16 9 SW 1009,1 28 24 0,2
20.07.2019 14:00:00 20,7 15,0 - - 16 9 SW 1008,6 30 36 0,0
20.07.2019 13:00:00 21,8 16,9 - - 22 12 SW 1008,2 30 36 0,0
20.07.2019 12:00:00 20,9 16,7 - - 18 10 SW 1007,5 35 36 0,0
20.07.2019 11:00:00 20,9 18,7 - - 13 7 SW 1007,1 23 24 0,0
20.07.2019 10:00:00 19,0 18,0 18,7 16,2 13 7 SW 1007,0 40 0 0,0
20.07.2019 09:00:00 17,9 17,4 - - 11 6 SW 1006,6 45 0 0,8
20.07.2019 08:00:00 17,1 16,5 - - 4 2 W 1006,1 2,7 0 1,6
20.07.2019 07:00:00 17,0 16,4 - - 9 5 SSW 1006,2 9 0 0,0
20.07.2019 06:00:00 16,3 15,7 - - 8 4 SSW 1006,3 11 0 0,0
20.07.2019 05:00:00 15,7 15,0 - - 8 4 SSW 1006,8 13 0 0,0
20.07.2019 04:00:00 15,3 14,7 - - 11 6 SW 1007,7 30 0 0,2
20.07.2019 03:00:00 15,3 14,5 - - 11 6 S 1006,9 35 0 3,2
20.07.2019 02:00:00 16,5 15,8 - - 9 5 SW 1008,1 9 0 6,4
20.07.2019 01:00:00 16,8 16,1 - - 9 5 S 1008,6 4,0 - 3,2
20.07.2019 00:00:00 17,0 16,2 - - 8 4 S 1008,6 9 0 4,8
19.07.2019 23:00:00 17,4 16,5 - - 9 5 SSW 1008,9 3,3 0 0,2
19.07.2019 22:00:00 17,6 16,7 - - 11 6 SSW 1009,5 13 0 0,0
19.07.2019 21:00:00 17,6 16,7 - - 13 7 SSW 1009,8 10 0 0,0
19.07.2019 20:00:00 17,6 16,8 - - 18 10 SSW 1010,0 6 0 0,2
19.07.2019 19:00:00 17,8 16,9 - - 15 8 SSW 1010,0 3,2 0 0,0
19.07.2019 18:00:00 17,8 16,5 - - 15 8 SSW 1010,5 6 0 0,0
19.07.2019 17:00:00 18,0 17,0 - - 16 9 SSW 1010,7 14 0 0,2
19.07.2019 16:00:00 17,1 16,3 - - 15 8 SSW 1011,2 9 0 0,2
19.07.2019 15:00:00 16,6 15,7 - - 13 7 SSW 1011,6 2,7 0 1,6
19.07.2019 14:00:00 16,6 15,2 - - 11 6 S 1011,8 3,0 0 0,2
19.07.2019 13:00:00 16,9 14,1 - - 18 10 SSW 1012,1 13 0 0,0
19.07.2019 12:00:00 17,6 13,7 - - 13 7 S 1012,3 35 0 0,0
19.07.2019 11:00:00 17,4 13,0 - - 13 7 SSW 1012,5 23 6 0,0
19.07.2019 10:00:00 18,0 14,4 19,0 16,2 13 7 SSW 1012,7 29 12 0,0
19.07.2019 09:00:00 16,2 14,8 - - 8 4 S 1012,9 26 0 0,2
19.07.2019 08:00:00 13,4 13,0 - - 2 1 SSW 1013,1 20 0 0,0
19.07.2019 07:00:00 11,8 11,3 - - 0 0 N 1013,4 22 0 0,0
19.07.2019 06:00:00 9,1 8,5 - - 0 0 N 1013,2 16 0 0,0
19.07.2019 05:00:00 9,1 8,4 - - 4 2 W 1013,4 18 0 0,0
19.07.2019 04:00:00 8,9 8,0 - - 2 1 W 1013,2 14 0 0,0
19.07.2019 03:00:00 9,7 8,6 - - 2 1 W 1013,5 21 0 0,0
19.07.2019 02:00:00 10,5 8,9 - - 4 2 W 1013,4 27 0 0,0
19.07.2019 01:00:00 11,4 9,3 - - 4 2 WSW 1013,5 45 - 0,0
19.07.2019 00:00:00 13,3 9,3 - - 8 4 WSW 1013,2 50 0 0,0
18.07.2019 23:00:00 15,0 9,7 - - 9 5 WSW 1012,9 45 0 0,0
18.07.2019 22:00:00 16,0 9,7 - - 5 3 W 1012,5 22 0 0,0
18.07.2019 21:00:00 18,2 10,5 - - 8 4 W 1011,8 40 6 0,0
18.07.2019 20:00:00 20,2 11,0 - - 11 6 W 1011,3 40 18 0,0
18.07.2019 19:00:00 21,0 9,8 - - 13 7 W 1010,9 45 18 0,0
18.07.2019 18:00:00 20,9 11,6 - - 9 5 WSW 1010,8 45 0 0,0
18.07.2019 17:00:00 20,9 11,6 - - 8 4 W 1010,7 35 6 0,0
18.07.2019 16:00:00 20,7 12,0 - - 13 7 W 1010,7 30 6 0,0
18.07.2019 15:00:00 20,4 13,5 - - 11 6 W 1010,7 45 0 0,0
18.07.2019 14:00:00 19,4 13,0 - - 16 9 W 1010,7 50 6 0,0
18.07.2019 13:00:00 19,7 14,3 - - 13 7 W 1010,2 30 0 0,0
18.07.2019 12:00:00 18,2 15,8 - - 11 6 W 1010,2 40 0 0,0
18.07.2019 11:00:00 17,2 16,2 - - 11 6 W 1009,8 30 0 1,8
18.07.2019 10:00:00 17,4 16,6 19,7 16,0 9 5 SSW 1009,6 8 0 0,0
18.07.2019 09:00:00 17,1 16,3 - - 11 6 SSW 1009,6 3,8 0 0,4
18.07.2019 08:00:00 16,5 15,4 - - 8 4 SSW 1009,9 2,6 0 0,4
18.07.2019 07:00:00 16,0 15,4 - - 9 5 SSW 1010,0 11 0 0,0
18.07.2019 06:00:00 15,1 14,5 - - 8 4 SSW 1010,1 7 0 0,0
18.07.2019 05:00:00 14,3 13,7 - - 4 2 SW 1010,6 4,0 0 0,0
18.07.2019 04:00:00 13,8 13,0 - - 4 2 SW 1010,6 3,2 0 0,0
18.07.2019 03:00:00 14,1 13,1 - - 8 4 WSW 1011,2 6 0 0,0
18.07.2019 02:00:00 14,3 12,8 - - 5 3 SW 1011,5 8 0 0,0
18.07.2019 01:00:00 15,2 13,3 - - 9 5 SW 1011,7 15 - 0,0
18.07.2019 00:00:00 15,3 12,9 - - 8 4 SW 1012,0 18 0 0,0
17.07.2019 23:00:00 16,0 12,2 - - 8 4 SW 1012,1 27 0 0,0
17.07.2019 22:00:00 16,7 11,4 - - 9 5 SW 1012,4 45 0 0,0
17.07.2019 21:00:00 17,6 11,1 - - 11 6 SW 1012,0 45 0 0,0

tt = temperature
td = dewpoint
tt -20cm = temperature -20cm
tt -100cm = temperature -100cm
ff = wind speed
dd = wind direction
ppp = reduced air pressure
vv = visibility
sd = sunshine duration
rr = precipitation

Next stations